Regional Weather Roundup
Issued by NWS Upton, NY

Current Version | Previous Version | Text Only | Print | Product List | Glossary On
Versions: 1 2 3 4 5 6 7 8 9 10 11 12 13 14 15 16 17 18 19 20 21 22 23 24 25 26 27 28 29 30 31 32 33 34 35 36 37 38 39 40 41 42 43 44 45 46 47 48 49 50
000 ASUS41 KOKX 040904 RWROKX REGIONAL WEATHER ROUNDUP NATIONAL WEATHER SERVICE NEW YORK NY 500 AM EDT TUE AUG 04 2015 NOTE: "FAIR" INDICATES FEW OR NO CLOUDS BELOW 12,000 FEET WITH NO SIGNIFICANT WEATHER AND/OR OBSTRUCTIONS TO VISIBILITY. NYZ071-072-176-178-NJZ106-104-041000- NEW YORK CITY METRO AREA CITY SKY/WX TMP DP RH WIND PRES REMARKS CENTRAL PARK LGT RAIN 70 66 87 CALM 29.87F FOG LAGUARDIA APRT TSTM 71 64 78 VRB3 29.83F KENNEDY INTL TSTM 73 63 70 NW7 29.86F NEWARK/LIBERTY CLOUDY 71 66 84 CALM 29.84F BRNX BOT. GARD N/A 68 66 94 E5 29.84F TETERBORO CLOUDY 72 65 78 SE5 29.82F $$ NYZ177-179-078>081-041000- LONG ISLAND NEW YORK CITY SKY/WX TMP DP RH WIND PRES REMARKS FARMINGDALE LGT RAIN 72 65 78 W9G30 29.85R ISLIP MOCLDY 76 72 87 SW13 29.85R SHIRLEY MOCLDY 78 74 87 SW10 29.85R WESTHAMPTON CLOUDY 77 75 93 SW12G18 29.86S MONTAUK POINT N/A 77 74 90 SW8 29.86R $$ NYZ052-065-067-041000- HUDSON VALLEY CITY SKY/WX TMP DP RH WIND PRES REMARKS WHITE PLAINS TSTM 71 67 87 VRB6 29.85F NEWBURGH MOCLDY 66 64 94 CALM 29.85 MONTGOMERY CLOUDY 66 64 93 CALM 29.83F POUGHKEEPSIE CLOUDY 69 65 86 CALM 29.83S ALBANY CLOUDY 68 65 90 CALM 29.83S $$ NJZ001-105-106-008-010-013-015-019>022-104-041000- NEW JERSEY CITY SKY/WX TMP DP RH WIND PRES REMARKS NEWARK/LIBERTY CLOUDY 71 66 84 CALM 29.84F TETERBORO CLOUDY 72 65 78 SE5 29.82F CALDWELL CLOUDY 69 65 86 SW3 29.83F MORRISTOWN CLOUDY 68 64 88 CALM 29.84F SOMERVILLE MOCLDY 66 64 93 SW3 29.84R SUSSEX LGT RAIN 67 64 90 CALM 29.84F ANDOVER N/A 65 65 100 CALM 29.86F TRENTON MOCLDY 67 64 90 S5 29.85F MILLVILLE PTCLDY 78 74 87 SW6 29.87R ATLANTIC CITY CLEAR 76 73 91 CALM 29.87R WRIGHTSTOWN MOCLDY 73 66 78 VRB2 29.85R TOMS RIVER N/A 73 72 94 N6 29.88R BELMAR PTCLDY 73 64 73 W3 29.87S $$ PAZ047>061-062-071-041000- EASTERN PENNSYLVANIA CITY SKY/WX TMP DP RH WIND PRES REMARKS PHILADELPHIA CLOUDY 76 64 66 CALM 29.88R ALLENTOWN CLOUDY 68 64 87 SE5 29.86R SCRANTON CLOUDY 71 66 84 CALM 29.85R $$ CTZ002-004>006-009-010-012-RIZ004-006-007-MAZ004-011-015-041000- SOUTHERN NEW ENGLAND IN CT CITY SKY/WX TMP DP RH WIND PRES REMARKS BRADLEY INTL CLOUDY 73 69 87 SW7 29.82R HARTFORD CLOUDY 74 73 97 S5 29.82R DANBURY TSTM 68 63 84 E7 29.87R WTRBRY/OXFORD CLOUDY 73 64 73 NW6 29.88R BRIDGEPORT CLOUDY 76 73 91 W5 29.83R MERIDEN LGT RAIN 74 71 91 NW3 29.83R NEW HAVEN CLOUDY 76 72 87 SW8 29.84R CHESTER PTSUNNY 73 73 100 SW3 29.85S FOG GROTON MOCLDY 75 73 93 SW9 29.83R WILLIMANTIC CLOUDY 74 71 91 CALM 29.84R IN RI CITY SKY/WX TMP DP RH WIND PRES REMARKS PROVIDENCE PTCLDY 75 72 90 SW6 29.84R BLOCK ISLAND N/A 73 73 100 SW13 29.86R WESTERLY MOCLDY 76 73 91 SW7 29.85R IN MA CITY SKY/WX TMP DP RH WIND PRES REMARKS BOSTON PTCLDY 73 70 90 S9 29.82S WORCESTER CLOUDY 69 68 96 SW8 29.85F FOG WESTFIELD CLOUDY 68 66 93 CALM 29.83R PROVINCETOWN CLEAR 72 66 83 SW9 29.84R NANTUCKET CLOUDY 73 71 93 SW8 29.87R FOG $$ ANZ330-335-338-340-345-350-353-355-041000- COASTAL MARINE OBSERVATIONS STATION/POSITION TIME SKY/WX TEMP WIND PRES VSBY WAVE AIR SEA DIR/SP/G HT/PER (UTC) (F) (DEG/KT/KT) (MB) (MI) (FT/S) NY HARB ENTRANCE 0750 75 74 220/ 10/ 12 1009.9 5/ 7 4S FIRE IS NOT AVBL 20S FIRE ISLAND 0750 77 74 210/ 16/ 19 1009.9 6/ 7 GREAT SOUTH BAY 0815 77 80 250/ 16/ 21 N/A 23SW MTP 0850 76 74 220/ 14/ 17 1010.4 6/ 7 HUDSON CANYON NOT AVBL KINGS POINT 0800 78 70 320/ 12/ 15 1009.5 EXECUTION ROCKS 0800 76 240/ 8/ 12 N/A CENTRAL LI SOUND NOT AVBL EASTERN LI SOUND 0800 72 68 230/ 10/ 14 N/A ROBBINS REEF 0800 69 280/ 25/ 32 1010.3 $$ >>>>>>>>>>>>>>>>>>>>>>>>>>>> KEY <<<<<<<<<<<<<<<<<<<<<<<<<<< > < > SKY/WX - SKY CONDITION/PRESENT WEATHER < > TMP - TEMPERATURE IN FAHRENHEIT < > DP - DEWPOINT IN FAHRENHEIT < > RH - RELATIVE HUMIDITY IN PERCENT < > WIND - DIRECTION AND SPEED IN MPH < > PRES - MEAN SEA LEVEL PRESSURE IN INCHES OF HG < > WCI - WIND CHILL INDEX < > VSB - VISIBILITY IN MILES < > HX - HEAT INDEX < > TC - TEMPERATURE IN CELSIUS < > VRB - VARIABLE WIND DIRECTION < > < >>>>>>>>>>>>>>>>>>>>>>>>>>>> KEY <<<<<<<<<<<<<<<<<<<<<<<<<<<

USA.gov is the U.S. government's official web portal to all federal, state and local government web resources and services.